Chino, CA

10:20 PM PST on February 18, 2018 (GMT -0800)
Chino

Weather History for KCNO - October, 2011

Change the Weather History Date:

Sunday, October 9, 2011

  Actual Average Record
Temperature  
Mean Temperature 67 °F -  
Max Temperature 87 °F 81 °F 105 °F (2015)
Min Temperature 50 °F 49 °F 45 °F (1998)
Cooling Degree Days 2    
Growing Degree Days 17 (Base 50)    
Moisture  
Dew Point 43 °F    
Average Humidity 54    
Maximum Humidity 86    
Minimum Humidity 16    
Precipitation  
Precipitation 0.00 in - - ()
Sea Level Pressure  
Sea Level Pressure 29.94 in    
Wind  
Wind Speed 2 mph (West)    
Max Wind Speed 10 mph    
Max Gust Speed -    
Visibility 10 miles    
Events      
Averages and records for this station are not official NWS values.
T = Trace of Precipitation, MM = Missing Value Source: NWS Daily Summary

Daily Weather History Graph

Daily Weather History Graph

Search for Another Location

Airport or City:

Trip Planner

Search our weather history database for the weather conditions in past years. The results will help you decide how hot, cold, wet, or windy it might be!

Date:

Astronomy

Oct. 09, 2011 Rise Set
Actual Time 6:50 AM PDT 6:24 PM PDT
Civil Twilight 6:25 AM PDT 6:49 PM PDT
Nautical Twilight 5:56 AM PDT 7:18 PM PDT
Astronomical Twilight 5:27 AM PDT 7:47 PM PDT
Moon 5:00 PM PDT (10/9) 4:44 AM PDT (10/9)
Length of Visible Light 12h 23m
Length of Day
11h 33m
Waxing Gibbous, 95% of the Moon is Illuminated
Oct 9
Waxing Gibbous
Oct 11
Full
Oct 19
Last Quarter
Oct 26
New
Nov 2
First Quarter

Hourly Weather History & Observations

Time (PDT) Temp. Dew Point Humidity Pressure Visibility Wind Dir Wind Speed Gust Speed Precip Events Conditions
12:53 AM 54.0 °F 46.9 °F 77% 29.99 in 8.0 mi Calm Calm - N/A   Clear
1:53 AM 53.1 °F 46.0 °F 77% 29.98 in 9.0 mi Calm Calm - N/A   Clear
2:53 AM 50.0 °F 46.0 °F 86% 29.98 in 8.0 mi NNE 3.5 mph - N/A   Clear
3:53 AM 54.0 °F 45.0 °F 72% 29.97 in 10.0 mi East 3.5 mph - N/A   Clear
4:53 AM 50.0 °F 45.0 °F 83% 29.97 in 9.0 mi Calm Calm - N/A   Clear
5:53 AM 51.1 °F 45.0 °F 80% 29.98 in 9.0 mi Calm Calm - N/A   Clear
6:53 AM 50.0 °F 45.0 °F 83% 29.99 in 10.0 mi Calm Calm - N/A   Scattered Clouds
7:53 AM 53.1 °F 46.9 °F 80% 30.00 in 10.0 mi NNE 3.5 mph - N/A   Scattered Clouds
8:53 AM 61.0 °F 48.9 °F 64% 30.01 in 10.0 mi Calm Calm - N/A   Scattered Clouds
9:53 AM 66.9 °F 45.0 °F 45% 30.00 in 10.0 mi Calm Calm - N/A   Scattered Clouds
10:53 AM 75.0 °F 42.1 °F 31% 29.98 in 10.0 mi Calm Calm - N/A   Scattered Clouds
11:53 AM 81.0 °F 39.0 °F 22% 29.95 in 10.0 mi SE 3.5 mph - N/A   Scattered Clouds
12:53 PM 82.9 °F 32.0 °F 16% 29.92 in 10.0 mi Calm Calm - N/A   Partly Cloudy
1:53 PM 84.0 °F 37.0 °F 19% 29.89 in 10.0 mi Calm Calm - N/A   Partly Cloudy
2:53 PM 84.9 °F 37.0 °F 18% 29.88 in 10.0 mi WSW 5.8 mph - N/A   Partly Cloudy
3:53 PM 84.9 °F 37.0 °F 18% 29.86 in 10.0 mi WSW 9.2 mph - N/A   Clear
5:53 PM 77.0 °F 42.1 °F 29% 29.86 in 10.0 mi WSW 10.4 mph - N/A   Clear
6:53 PM 70.0 °F 43.0 °F 38% 29.88 in 10.0 mi WSW 8.1 mph - N/A   Clear
7:53 PM 64.0 °F 45.0 °F 50% 29.89 in 10.0 mi WSW 5.8 mph - N/A   Clear
8:53 PM 62.1 °F 46.9 °F 58% 29.91 in 10.0 mi WNW 3.5 mph - N/A   Clear
9:53 PM 60.1 °F 48.0 °F 64% 29.91 in 10.0 mi Calm Calm - N/A   Clear
10:53 PM 55.9 °F 48.0 °F 75% 29.92 in 8.0 mi Calm Calm - N/A   Clear